OPS 4682 DEB, 38426

Orbit data source: Space-Track

OPS 4682 DEB, 38426 is space debris in LEO originally from a launch on Sat, 03 Apr 1965 UTC launched from the Air Force Western Test Range (AFWTR). Debris objects in space refer to the collection of defunct objects orbiting the Earth. Examples of debris include non-operational satellites, rocket bodies, and fragments generated from explosions, collisions, or faulty payload assembly.

Loading next visibility...
Identifier
38426, 1965-027EF
Orbit
LEO
Country
Flag of USUS
Related business
Manufacturer
Unknown
Mission
Spacecraft
Bus & Motor
Unknown
Mass
Unknown
Launch date (UTC)
1965-04-03 (61 years ago)
Launch vehicle
Unknown
Launch site
Air Force Western Test Range (AFWTR)
Object type
Payload
Rocket body
Debris
Shape & HBR
Unknown shape, 0.1 m
Radar Cross Section
Small (<0.1 m²)

Expand to show TLE details & history
Last TLE update: 1 week ago

TLE from 1 week ago
0 OPS 4682 DEB
1 38426U 65027EF  26096.71954278 -.00000042  00000-0 -17314-3 0  9996
2 38426  90.2486   8.4657 0036010 341.2594  18.7198 12.96105252625800
Epoch: 2026-04-06T17:16Z
TLE epoch observation values (Epoch: 2026-04-06T17:16:08.496Z)
Latitude
0.00001°
Longitude
-85.57627°
Altitude
1,254.159 km
Speed
7.24 km/s
True Right ascension
00h 33m 51s
True Declination
0° 00' 00"
Sunlit
Object was in daylight at epoch
Visualization orbit readout
Latitude
Unknown
Longitude
Unknown
Altitude
Unknown
Speed
Unknown
Apparent Right ascension
Unknown
Apparent Declination
Unknown
Sunlit
N/A
Visualization observer readout
Local Sidereal Time
18:55:28
Azimuth
Unknown
Elevation
Unknown
Doppler factor
Unknown
Orbital elements
Apogee altitude
1,302.075 km
Perigee altitude
1,246.96 km
Semi-major axis
7,652.654 km
Eccentricity
0.0036
Inclination
90.2486°
RAAN
8.4657°
Arg. of periapsis
341.2594°
True anomaly
18.8528°
Mean anomaly
18.7198°
Eccentric anomaly
18.78624°
Mean motion
3.24209 °/min
Orbital period
111.04 mins
BSTAR
-0.00017314
Loading maneuver chart data...
Computing Atmospheric mass density...
Loading historical data...
Loading historical data...
Loading historical data...
Loading historical data...
Loading historical data...
Loading historical data...
Loading historical data...

Documentation

Showing up to 5 results
|